Weather History for Cherokee, IA

Change the Weather History Date:

Saturday, September 21, 2013

  Actual Average Record
Temperature  
Mean Temperature 56 °F -  
Max Temperature 77 °F 70 °F 91 °F (1970)
Min Temperature 37 °F 45 °F 31 °F (1982)
Degree Days  
Heating Degree Days 8    
Growing Degree Days 6 (Base 50)    
Moisture  
Dew Point 41 °F    
Average Humidity 63    
Maximum Humidity 95    
Minimum Humidity 23    
Precipitation  
Precipitation 0.00 in - - ()
Sea Level Pressure  
Sea Level Pressure 29.96 in    
Wind  
Wind Speed 1 mph (South)    
Max Wind Speed 9 mph    
Max Gust Speed -    
Visibility 10 miles    
Events Fog    
Averages and records for this station are not official NWS values.
T = Trace of Precipitation, MM = Missing Value Source: NWS Daily Summary

Daily Weather History Graph

Daily Weather History Graph

Search for Another Location

Airport:

Trip Planner

Search our weather history database for the weather conditions in past years. The results will help you decide how hot, cold, wet, or windy it might be!

Date:

Astronomy

Sep. 21, 2013 Rise Set
Actual Time 7:08 AM CDT 7:20 PM CDT
Civil Twilight 6:40 AM CDT 7:48 PM CDT
Nautical Twilight 6:07 AM CDT 8:22 PM CDT
Astronomical Twilight 5:33 AM CDT 8:55 PM CDT
Moon 8:27 PM CDT (9/21) 9:32 AM CDT (9/21)
Length of Visible Light 13h 08m
Length of Day
12h 12m
Waning Gibbous, 94% of the Moon is Illuminated
Sep 21
Waning Gibbous
Sep 26
Last Quarter
Oct 4
New
Oct 11
First Quarter
Oct 18
Full

Hourly Weather History & Observations

Time (CDT) Temp. Windchill Dew Point Humidity Pressure Visibility Wind Dir Wind Speed Gust Speed Precip Events Conditions
12:15 AM 44.8 °F - 42.1 °F 90% 30.01 in 10.0 mi Calm Calm - N/A   Clear
12:35 AM 43.5 °F - 41.2 °F 91% 30.01 in 10.0 mi Calm Calm - N/A   Clear
12:55 AM 43.9 °F - 41.5 °F 91% 30.01 in 10.0 mi Calm Calm - N/A   Clear
1:15 AM 43.3 °F - 41.4 °F 93% 30.01 in 10.0 mi Calm Calm - N/A   Clear
1:35 AM 42.6 °F - 40.5 °F 92% 30.01 in 10.0 mi Calm Calm - N/A   Clear
1:55 AM 44.2 °F - 42.3 °F 93% 30.02 in 10.0 mi Calm Calm - N/A   Clear
2:15 AM 43.9 °F - 41.9 °F 93% 30.01 in 10.0 mi Calm Calm - N/A   Clear
2:35 AM 41.2 °F - 38.8 °F 91% 30.01 in 10.0 mi Calm Calm - N/A   Clear
2:55 AM 41.2 °F - 39.2 °F 93% 30.01 in 10.0 mi Calm Calm - N/A   Clear
3:15 AM 41.4 °F - 39.6 °F 93% 30.01 in 10.0 mi Calm Calm - N/A   Clear
3:35 AM 40.1 °F - 38.3 °F 93% 30.01 in 10.0 mi Calm Calm - N/A   Clear
3:55 AM 40.1 °F - 37.9 °F 92% 30.00 in 10.0 mi Calm Calm - N/A   Clear
4:15 AM 40.5 °F - 38.5 °F 93% 30.00 in 10.0 mi Calm Calm - N/A   Clear
4:35 AM 41.2 °F - 39.0 °F 92% 30.00 in 0.5 mi Calm Calm - N/A Fog Fog
4:55 AM 39.4 °F - 37.4 °F 93% 30.00 in 3.0 mi Calm Calm - N/A   Scattered Clouds
5:15 AM 39.0 °F - 37.4 °F 94% 30.00 in 0.5 mi Calm Calm - N/A Fog Fog
5:35 AM 37.6 °F - 36.0 °F 94% 30.01 in 7.0 mi Calm Calm - N/A   Scattered Clouds
5:55 AM 37.9 °F 35.5 °F 36.3 °F 94% 30.01 in 7.0 mi South 3.5 mph - N/A   Clear
6:15 AM 39.0 °F - 37.6 °F 95% 30.01 in 10.0 mi Calm Calm - N/A   Clear
6:35 AM 38.3 °F - 36.7 °F 94% 30.01 in 10.0 mi Calm Calm - N/A   Clear
6:55 AM 38.3 °F - 36.7 °F 94% 30.02 in 10.0 mi Calm Calm - N/A   Clear
7:15 AM 37.6 °F - 36.1 °F 95% 30.02 in 10.0 mi Calm Calm - N/A   Clear
7:35 AM 37.8 °F - 36.1 °F 94% 30.03 in 10.0 mi Calm Calm - N/A   Clear
7:55 AM 38.7 °F - 37.0 °F 94% 30.03 in 10.0 mi Calm Calm - N/A   Clear
8:15 AM 41.5 °F - 40.1 °F 95% 30.03 in 10.0 mi Calm Calm - N/A   Clear
8:35 AM 43.7 °F - 42.1 °F 94% 30.02 in 10.0 mi Calm Calm - N/A   Clear
8:55 AM 46.2 °F - 44.4 °F 93% 30.03 in 10.0 mi Calm Calm - N/A   Clear
9:15 AM 48.4 °F - 45.7 °F 90% 30.03 in 10.0 mi Calm Calm - N/A   Clear
9:35 AM 51.4 °F - 45.5 °F 80% 30.03 in 10.0 mi Calm Calm - N/A   Clear
9:55 AM 54.3 °F - 44.6 °F 70% 30.03 in 10.0 mi Calm Calm - N/A   Clear
10:15 AM 57.9 °F - 45.5 °F 63% 30.03 in 10.0 mi Calm Calm - N/A   Clear
10:35 AM 60.1 °F - 45.5 °F 59% 30.03 in 10.0 mi Calm Calm - N/A   Clear
10:55 AM 62.8 °F - 44.8 °F 52% 30.03 in 10.0 mi Calm Calm - N/A   Clear
11:15 AM 64.2 °F - 43.2 °F 46% 30.02 in 10.0 mi Calm Calm - N/A   Clear
11:35 AM 66.4 °F - 38.5 °F 36% 30.01 in 10.0 mi Calm Calm - N/A   Clear
11:55 AM 68.0 °F - 35.1 °F 30% 30.01 in 10.0 mi Calm Calm - N/A   Clear
12:15 PM 69.3 °F - 35.1 °F 28% 30.01 in 10.0 mi SSW 3.5 mph - N/A   Clear
12:35 PM 69.8 °F - 34.3 °F 27% 30.00 in 10.0 mi Calm Calm - N/A   Clear
12:55 PM 70.7 °F - 34.5 °F 26% 29.99 in 10.0 mi Calm Calm - N/A   Clear
1:15 PM 72.0 °F - 34.9 °F 26% 29.98 in 10.0 mi WSW 6.9 mph - N/A   Clear
1:35 PM 72.1 °F - 34.2 °F 25% 29.97 in 10.0 mi NNW 4.6 mph - N/A   Clear
1:55 PM 72.9 °F - 33.8 °F 24% 29.97 in 10.0 mi Calm Calm - N/A   Clear
2:15 PM 73.9 °F - 34.5 °F 24% 29.96 in 10.0 mi WNW 4.6 mph - N/A   Clear
2:35 PM 74.7 °F - 34.5 °F 23% 29.95 in 10.0 mi Calm Calm - N/A   Clear
2:55 PM 75.6 °F - 34.9 °F 23% 29.94 in 10.0 mi Calm Calm - N/A   Clear
3:15 PM 75.2 °F - 34.3 °F 23% 29.92 in 10.0 mi WSW 3.5 mph - N/A   Clear
3:35 PM 76.8 °F - 36.5 °F 23% 29.92 in 10.0 mi SW 4.6 mph - N/A   Clear
3:55 PM 76.8 °F - 36.0 °F 23% 29.91 in 10.0 mi SW 5.8 mph - N/A   Clear
4:15 PM 76.8 °F - 37.9 °F 25% 29.90 in 10.0 mi SE 9.2 mph - N/A   Clear
4:35 PM 76.5 °F - 38.5 °F 25% 29.89 in 10.0 mi SE 6.9 mph - N/A   Clear
4:55 PM 76.3 °F - 37.8 °F 25% 29.89 in 10.0 mi South 3.5 mph - N/A   Clear
5:15 PM 76.1 °F - 37.4 °F 25% 29.89 in 10.0 mi South 9.2 mph - N/A   Clear
5:35 PM 76.5 °F - 37.0 °F 24% 29.89 in 10.0 mi South 6.9 mph - N/A   Clear
5:55 PM 76.1 °F - 37.4 °F 25% 29.88 in 10.0 mi SSE 6.9 mph - N/A   Clear
6:15 PM 75.4 °F - 39.6 °F 27% 29.88 in 10.0 mi SSE 8.1 mph - N/A   Clear
6:35 PM 74.5 °F - 39.7 °F 29% 29.88 in 10.0 mi SSE 4.6 mph - N/A   Clear
6:55 PM 72.3 °F - 43.0 °F 35% 29.88 in 10.0 mi SSE 4.6 mph - N/A   Clear
7:15 PM 69.4 °F - 45.5 °F 42% 29.88 in 10.0 mi South 4.6 mph - N/A   Clear
7:35 PM 66.4 °F - 46.2 °F 48% 29.88 in 10.0 mi SSE 3.5 mph - N/A   Clear
7:55 PM 65.1 °F - 46.4 °F 51% 29.88 in 10.0 mi SSE 3.5 mph - N/A   Clear
8:15 PM 63.3 °F - 47.1 °F 56% 29.89 in 10.0 mi Calm Calm - N/A   Clear
8:35 PM 62.4 °F - 46.9 °F 57% 29.89 in 10.0 mi SE 4.6 mph - N/A   Clear
8:55 PM 59.7 °F - 48.2 °F 66% 29.89 in 10.0 mi SE 4.6 mph - N/A   Clear
9:15 PM 59.9 °F - 47.8 °F 64% 29.89 in 10.0 mi SE 4.6 mph - N/A   Clear
9:35 PM 58.1 °F - 49.1 °F 72% 29.89 in 10.0 mi SSE 3.5 mph - N/A   Clear
9:55 PM 58.6 °F - 48.6 °F 69% 29.89 in 10.0 mi SSE 4.6 mph - N/A   Clear
10:15 PM 59.0 °F - 48.2 °F 67% 29.89 in 10.0 mi Calm Calm - N/A   Clear
10:35 PM 59.0 °F - 48.2 °F 67% 29.89 in 10.0 mi SSE 4.6 mph - N/A   Clear
10:55 PM 58.5 °F - 48.2 °F 69% 29.89 in 10.0 mi SSE 4.6 mph - N/A   Clear
11:15 PM 58.3 °F - 48.4 °F 70% 29.89 in 10.0 mi Calm Calm - N/A   Clear
11:35 PM 57.4 °F - 48.4 °F 72% 29.89 in 10.0 mi Calm Calm - N/A   Clear
11:55 PM 55.6 °F - 48.6 °F 77% 29.89 in 10.0 mi ESE 3.5 mph - N/A   Clear